FW4441 Weather Reports


Display with metric or nautical units.
time (UTC)temp
F
wind
direction
speed
MPH
gust
MPH
rain 1hr
in
rain 24hr
in
rain mn
in
humidity
%
barometer
mb
20260504024531 78 61 2.0 8.0 0.00 0.00 0.00 33 1005.0
20260504023030 79 62 2.0 7.0 0.00 0.00 0.00 31 1005.1
20260504021532 80 57 4.0 8.0 0.00 0.00 0.00 31 1005.1
20260504020030 80 58 5.0 10.0 0.00 0.00 0.00 31 1005.2
20260504014528 81 53 6.0 9.0 0.00 0.00 0.00 30 1005.4
20260504013029 81 51 5.0 11.0 0.00 0.00 0.00 30 1005.5
20260504004530 86 28 1.0 6.0 0.00 0.00 0.00 28 1006.0
20260504003031 86 65 3.0 10.0 0.00 0.00 0.00 28 1006.0
20260504000030 87 51 5.0 14.0 0.00 0.00 0.00 27 1006.3
20260503234534 88 32 6.0 16.0 0.00 0.00 0.00 27 1006.4
20260503233032 87 27 6.0 11.0 0.00 0.00 0.00 26 1006.7
20260503231608 88 30 8.0 16.0 0.00 0.00 0.00 26 1006.9
20260503230033 88 35 3.0 11.0 0.00 0.00 0.00 25 1007.1
20260503224530 90 53 3.0 8.0 0.00 0.00 0.00 25 1007.5
20260503223029 89 46 1.0 5.0 0.00 0.00 0.00 25 1007.8
20260503221533 88 62 4.0 14.0 0.00 0.00 0.00 25 1008.0
20260503220107 88 61 4.0 12.0 0.00 0.00 0.00 25 1008.1
20260503214529 88 21 8.0 14.0 0.00 0.00 0.00 26 1008.3
20260503213029 88 60 3.0 10.0 0.00 0.00 0.00 27 1008.6
20260503211532 88 111 3.0 12.0 0.00 0.00 0.00 27 1008.8
20260503210030 88 38 5.0 17.0 0.00 0.00 0.00 28 1009.0
20260503204528 87 33 6.0 15.0 0.00 0.00 0.00 29 1009.1
20260503201531 87 29 8.0 17.0 0.00 0.00 0.00 33 1009.3
20260503200033 87 42 6.0 15.0 0.00 0.00 0.00 34 1009.4
20260503194529 86 218 3.0 6.0 0.00 0.00 0.00 40 1009.8
20260503193146 86 212 3.0 7.0 0.00 0.00 0.00 44 1009.9
20260503191530 83 266 2.0 5.0 0.00 0.00 0.00 48 1010.2
20260503190105 82 273 3.0 6.0 0.00 0.00 0.00 48 1010.4
20260503183107 79 288 2.0 4.0 0.00 0.00 0.00 49 1010.7
20260503181529 79 287 1.0 4.0 0.00 0.00 0.00 48 1010.8
20260503180105 78 254 1.0 3.0 0.00 0.00 0.00 46 1011.1
20260503174605 77 250 0.0 1.0 0.00 0.00 0.00 48 1011.2
20260503173031 76 276 1.0 3.0 0.00 0.00 0.00 49 1011.3
20260503171531 74 249 0.0 2.0 0.00 0.00 0.00 53 1011.4
20260503081529 58 116 1.0 4.0 0.00 0.00 0.00 79 1011.5
20260503071531 58 189 0.0 3.0 0.00 0.00 0.00 76 1011.6
20260503070104 59 219 0.0 2.0 0.00 0.00 0.00 74 1011.5
20260503054533 61 67 2.0 4.0 0.00 0.00 0.00 72 1011.3
20260503053033 62 129 0.0 2.0 0.00 0.00 0.00 72 1011.4
20260503051530 62 64 1.0 5.0 0.00 0.00 0.00 72 1011.3
20260503050114 63 152 2.0 5.0 0.00 0.00 0.00 71 1011.2
20260503044531 63 46 1.0 3.0 0.00 0.00 0.00 70 1011.1
20260503043032 63 34 1.0 3.0 0.00 0.00 0.00 70 1011.0
20260503041530 64 341 3.0 6.0 0.00 0.00 0.00 68 1010.7
20260503040037 65 340 2.0 4.0 0.00 0.00 0.00 67 1010.4
20260503034528 67 213 1.0 4.0 0.00 0.00 0.00 64 1010.1
20260503033031 68 137 2.0 4.0 0.00 0.00 0.00 63 1009.8
20260503031529 69 52 0.0 3.0 0.00 0.00 0.00 64 1009.4
20260503030034 69 360 1.0 3.0 0.00 0.00 0.00 65 1009.1